Location: *
(30.4476°N, 114.3798°E)
Time: 01:32:15
(UTC+00:00)

Cosmos 2369 Rocket - Pass Details

Date: 09 April 2020
Orbit: 829 x 852 km, 71.0° (Epoch: 27 May)

Event Time Altitude Azimuth Distance (km) Brightness Sun altitude
Rises 12:00:28 0° 331° (NNW) 3,406 6.1 -16.2°
Reaches altitude 10° 12:03:01 10° 325° (NW) 2,464 5.4 -16.8°
Maximum altitude 12:08:20 44° 255° (WSW) 1,153 3.3 -17.8°
Drops below altitude 10° 12:13:36 10° 185° (S) 2,437 4.4 -18.9°
Enters shadow 12:16:05 - 179° (S) 3,348 5.1 -19.4°
